| time (UTC) | temp F | wind direction | speed MPH | gust MPH | rain 1hr in | rain 24hr in | rain mn in | humidity % | barometer mb |
| 20260506150519 | 43 | 296 | 1.0 | 4.0 | 0.07 | 0.56 | 0.25 | 86 | 1009.4 |
| 20260506150033 | 43 | 0 | 1.0 | 4.0 | 0.07 | 0.55 | 0.24 | 85 | 1009.4 |
| 20260506145516 | 43 | 292 | 1.0 | 6.0 | 0.06 | 0.60 | 0.23 | 86 | 1009.5 |
| 20260506145019 | 43 | 286 | 2.0 | 6.0 | 0.06 | 0.58 | 0.22 | 86 | 1009.5 |
| 20260506144532 | 43 | 273 | 1.0 | 3.0 | 0.07 | 0.58 | 0.22 | 86 | 1009.6 |
| 20260506144025 | 43 | 283 | 1.0 | 3.0 | 0.06 | 0.58 | 0.21 | 86 | 1009.6 |
| 20260506143519 | 43 | 0 | 1.0 | 3.0 | 0.07 | 0.58 | 0.21 | 86 | 1009.6 |
| 20260506143043 | 44 | 254 | 1.0 | 4.0 | 0.07 | 0.57 | 0.20 | 86 | 1009.6 |
| 20260506142515 | 44 | 250 | 1.0 | 4.0 | 0.08 | 0.57 | 0.20 | 86 | 1009.5 |
| 20260506142015 | 44 | 258 | 2.0 | 4.0 | 0.08 | 0.56 | 0.19 | 87 | 1009.7 |
| 20260506141529 | 44 | 286 | 1.0 | 4.0 | 0.09 | 0.56 | 0.19 | 87 | 1009.7 |
| 20260506141016 | 43 | 277 | 1.0 | 5.0 | 0.08 | 0.55 | 0.18 | 86 | 1009.6 |
| 20260506140515 | 44 | 246 | 2.0 | 5.0 | 0.09 | 0.55 | 0.18 | 86 | 1009.7 |
| 20260506140036 | 44 | 280 | 1.0 | 7.0 | 0.08 | 0.54 | 0.17 | 86 | 1009.7 |
| 20260506135515 | 44 | 0 | 2.0 | 7.0 | 0.09 | 0.57 | 0.17 | 86 | 1009.7 |
| 20260506135018 | 44 | 282 | 2.0 | 6.0 | 0.08 | 0.56 | 0.16 | 86 | 1009.7 |
| 20260506134531 | 44 | 277 | 2.0 | 6.0 | 0.07 | 0.55 | 0.15 | 86 | 1009.6 |
| 20260506134014 | 44 | 276 | 1.0 | 3.0 | 0.08 | 0.55 | 0.15 | 86 | 1009.5 |
| 20260506133515 | 44 | 292 | 0.0 | 4.0 | 0.07 | 0.54 | 0.14 | 87 | 1009.5 |
| 20260506133031 | 44 | 0 | 0.0 | 6.0 | 0.07 | 0.52 | 0.13 | 86 | 1009.6 |
| 20260506132518 | 44 | 305 | 1.0 | 7.0 | 0.07 | 0.52 | 0.12 | 85 | 1009.4 |
| 20260506132014 | 44 | 297 | 2.0 | 7.0 | 0.06 | 0.51 | 0.11 | 85 | 1009.5 |
| 20260506131532 | 44 | 271 | 2.0 | 4.0 | 0.06 | 0.50 | 0.10 | 86 | 1009.5 |
| 20260506131019 | 44 | 282 | 1.0 | 4.0 | 0.07 | 0.50 | 0.10 | 85 | 1009.3 |
| 20260506130519 | 44 | 236 | 1.0 | 4.0 | 0.06 | 0.49 | 0.09 | 85 | 1009.3 |
| 20260506130030 | 44 | 278 | 1.0 | 4.0 | 0.06 | 0.49 | 0.09 | 85 | 1009.2 |
| 20260506125515 | 45 | 287 | 1.0 | 4.0 | 0.06 | 0.48 | 0.08 | 85 | 1009.2 |
| 20260506125018 | 45 | 277 | 1.0 | 4.0 | 0.06 | 0.48 | 0.08 | 85 | 1009.3 |
| 20260506124529 | 45 | 304 | 1.0 | 4.0 | 0.06 | 0.47 | 0.07 | 86 | 1009.2 |
| 20260506124015 | 45 | 303 | 1.0 | 4.0 | 0.06 | 0.47 | 0.07 | 86 | 1009.2 |
| 20260506123515 | 45 | 291 | 1.0 | 4.0 | 0.06 | 0.47 | 0.07 | 85 | 1009.2 |
| 20260506123034 | 45 | 304 | 2.0 | 4.0 | 0.05 | 0.46 | 0.06 | 85 | 1009.3 |
| 20260506122514 | 45 | 300 | 1.0 | 4.0 | 0.04 | 0.45 | 0.05 | 85 | 1009.4 |
| 20260506122013 | 45 | 0 | 1.0 | 3.0 | 0.03 | 0.44 | 0.04 | 85 | 1009.5 |
| 20260506121533 | 45 | 233 | 0.0 | 2.0 | 0.04 | 0.44 | 0.04 | 85 | 1009.6 |
| 20260506121017 | 45 | 279 | 0.0 | 4.0 | 0.03 | 0.43 | 0.03 | 84 | 1009.7 |
| 20260506120518 | 45 | 308 | 1.0 | 4.0 | 0.03 | 0.43 | 0.03 | 84 | 1009.7 |
| 20260506120032 | 45 | 279 | 0.0 | 3.0 | 0.02 | 0.42 | 0.02 | 84 | 1009.8 |
| 20260506115515 | 45 | 284 | 1.0 | 4.0 | 0.02 | 0.42 | 0.02 | 84 | 1009.8 |
| 20260506115014 | 45 | 263 | 0.0 | 4.0 | 0.01 | 0.41 | 0.01 | 84 | 1009.7 |
| 20260506114540 | 45 | 301 | 1.0 | 5.0 | 0.01 | 0.41 | 0.01 | 84 | 1009.6 |
| 20260506114015 | 45 | 297 | 1.0 | 5.0 | 0.01 | 0.41 | 0.01 | 84 | 1009.5 |
| 20260506113515 | 45 | 281 | 1.0 | 6.0 | 0.01 | 0.41 | 0.01 | 84 | 1009.5 |
| 20260506113030 | 45 | 305 | 1.0 | 6.0 | 0.01 | 0.41 | 0.01 | 84 | 1009.4 |
| 20260506112516 | 45 | 292 | 1.0 | 6.0 | 0.01 | 0.41 | 0.01 | 84 | 1009.2 |
| 20260506112012 | 46 | 261 | 1.0 | 6.0 | 0.01 | 0.41 | 0.01 | 84 | 1009.2 |
| 20260506111537 | 46 | 271 | 0.0 | 6.0 | 0.00 | 0.40 | 0.00 | 84 | 1009.3 |
| 20260506111015 | 46 | 239 | 0.0 | 6.0 | 0.00 | 0.40 | 0.00 | 84 | 1009.2 |
| 20260506110520 | 46 | 0 | 1.0 | 6.0 | 0.00 | 0.40 | 0.00 | 84 | 1009.1 |
| 20260506110035 | 46 | 252 | 0.0 | 7.0 | 0.00 | 0.40 | 0.00 | 84 | 1009.0 |
| 20260506105515 | 46 | 267 | 2.0 | 7.0 | 0.00 | 0.40 | 0.00 | 84 | 1009.1 |
| 20260506105014 | 46 | 213 | 1.0 | 7.0 | 0.00 | 0.40 | 0.00 | 84 | 1009.1 |
| 20260506104533 | 46 | 276 | 2.0 | 8.0 | 0.00 | 0.40 | 0.00 | 83 | 1009.0 |
| 20260506104014 | 46 | 169 | 2.0 | 8.0 | 0.00 | 0.40 | 0.00 | 83 | 1009.0 |
| 20260506103516 | 46 | 244 | 2.0 | 9.0 | 0.00 | 0.40 | 0.00 | 83 | 1008.9 |
| 20260506103030 | 46 | 205 | 2.0 | 9.0 | 0.00 | 0.40 | 0.00 | 83 | 1009.0 |
| 20260506102517 | 46 | 198 | 3.0 | 8.0 | 0.00 | 0.40 | 0.00 | 83 | 1009.0 |
| 20260506102016 | 46 | 165 | 1.0 | 8.0 | 0.00 | 0.40 | 0.00 | 83 | 1008.8 |
| 20260506101547 | 46 | 258 | 2.0 | 7.0 | 0.00 | 0.40 | 0.00 | 82 | 1008.7 |
| 20260506101016 | 46 | 169 | 2.0 | 8.0 | 0.00 | 0.40 | 0.00 | 82 | 1008.6 |
| 20260506100518 | 46 | 205 | 2.0 | 8.0 | 0.00 | 0.40 | 0.00 | 82 | 1008.6 |
| 20260506100035 | 46 | 217 | 3.0 | 7.0 | 0.00 | 0.40 | 0.00 | 82 | 1008.7 |
| 20260506095515 | 46 | 236 | 1.0 | 7.0 | 0.00 | 0.40 | 0.00 | 82 | 1008.4 |
| 20260506095015 | 46 | 244 | 2.0 | 7.0 | 0.00 | 0.40 | 0.00 | 82 | 1008.4 |
| 20260506094536 | 46 | 177 | 2.0 | 7.0 | 0.00 | 0.40 | 0.00 | 82 | 1008.3 |
| 20260506094014 | 46 | 210 | 3.0 | 9.0 | 0.00 | 0.40 | 0.00 | 82 | 1008.5 |
| 20260506093515 | 46 | 188 | 4.0 | 10.0 | 0.00 | 0.40 | 0.00 | 82 | 1008.6 |
| 20260506093033 | 46 | 201 | 4.0 | 10.0 | 0.00 | 0.40 | 0.00 | 82 | 1008.5 |
| 20260506092514 | 46 | 212 | 2.0 | 7.0 | 0.00 | 0.40 | 0.00 | 81 | 1008.4 |
| 20260506092019 | 46 | 167 | 1.0 | 6.0 | 0.00 | 0.40 | 0.00 | 82 | 1008.5 |
| 20260506091530 | 46 | 215 | 3.0 | 9.0 | 0.00 | 0.40 | 0.00 | 81 | 1008.5 |
| 20260506091015 | 46 | 230 | 3.0 | 10.0 | 0.00 | 0.40 | 0.00 | 81 | 1008.7 |
| 20260506090515 | 46 | 191 | 3.0 | 10.0 | 0.00 | 0.40 | 0.00 | 81 | 1008.7 |
| 20260506090030 | 46 | 167 | 3.0 | 9.0 | 0.00 | 0.40 | 0.00 | 80 | 1008.6 |
| 20260506085515 | 46 | 194 | 3.0 | 9.0 | 0.00 | 0.40 | 0.00 | 81 | 1008.8 |
| 20260506085016 | 46 | 216 | 2.0 | 9.0 | 0.00 | 0.40 | 0.00 | 80 | 1008.9 |
| 20260506084533 | 46 | 196 | 2.0 | 8.0 | 0.00 | 0.40 | 0.00 | 80 | 1008.8 |
| 20260506084015 | 46 | 225 | 3.0 | 8.0 | 0.00 | 0.40 | 0.00 | 80 | 1008.3 |
| 20260506083516 | 46 | 194 | 2.0 | 10.0 | 0.00 | 0.40 | 0.00 | 80 | 1008.3 |
| 20260506083034 | 46 | 215 | 4.0 | 11.0 | 0.00 | 0.40 | 0.00 | 80 | 1008.6 |
| 20260506082516 | 46 | 218 | 4.0 | 12.0 | 0.00 | 0.40 | 0.00 | 79 | 1008.6 |
| 20260506082021 | 47 | 219 | 3.0 | 13.0 | 0.00 | 0.40 | 0.00 | 80 | 1008.5 |
| 20260506081534 | 47 | 205 | 4.0 | 13.0 | 0.00 | 0.40 | 0.00 | 80 | 1008.5 |
| 20260506081018 | 47 | 159 | 5.0 | 12.0 | 0.00 | 0.40 | 0.00 | 80 | 1008.5 |
| 20260506080520 | 47 | 226 | 3.0 | 12.0 | 0.00 | 0.40 | 0.00 | 80 | 1008.5 |
| 20260506073516 | 47 | 208 | 4.0 | 12.0 | 0.00 | 0.40 | 0.00 | 81 | 1007.9 |
| 20260506073038 | 48 | 200 | 5.0 | 12.0 | 0.00 | 0.40 | 0.00 | 81 | 1007.9 |
| 20260506072518 | 48 | 180 | 5.0 | 14.0 | 0.00 | 0.40 | 0.00 | 81 | 1008.0 |
| 20260506072015 | 48 | 189 | 5.0 | 14.0 | 0.00 | 0.40 | 0.00 | 82 | 1008.2 |
| 20260506071530 | 48 | 233 | 5.0 | 12.0 | 0.00 | 0.40 | 0.00 | 82 | 1008.1 |
| 20260506071015 | 48 | 168 | 7.0 | 12.0 | 0.00 | 0.40 | 0.00 | 82 | 1007.8 |
| 20260506070515 | 48 | 193 | 5.0 | 9.0 | 0.00 | 0.40 | 0.00 | 83 | 1007.9 |
| 20260506062016 | 49 | 175 | 4.0 | 16.0 | 0.00 | 0.40 | 0.00 | 83 | 1007.5 |
| 20260506061534 | 49 | 188 | 5.0 | 16.0 | 0.00 | 0.40 | 0.00 | 83 | 1007.5 |
| 20260506061019 | 49 | 209 | 5.0 | 11.0 | 0.00 | 0.40 | 0.00 | 82 | 1007.5 |
| 20260506060519 | 49 | 105 | 5.0 | 12.0 | 0.00 | 0.40 | 0.00 | 83 | 1007.5 |
| 20260506051017 | 50 | 215 | 4.0 | 10.0 | 0.00 | 0.40 | 0.00 | 83 | 1007.2 |
| 20260506050523 | 50 | 234 | 4.0 | 10.0 | 0.00 | 0.40 | 0.00 | 83 | 1007.1 |
| 20260506045019 | 50 | 200 | 5.0 | 15.0 | 0.00 | 0.40 | 0.00 | 83 | 1006.9 |
| 20260506044535 | 50 | 238 | 4.0 | 15.0 | 0.00 | 0.40 | 0.00 | 83 | 1006.7 |
| 20260506044021 | 50 | 176 | 5.0 | 14.0 | 0.00 | 0.40 | 0.00 | 83 | 1006.7 |
| 20260506043517 | 50 | 202 | 5.0 | 10.0 | 0.00 | 0.40 | 0.00 | 83 | 1007.1 |
| 20260506043033 | 51 | 165 | 4.0 | 11.0 | 0.01 | 0.40 | 0.00 | 82 | 1007.2 |
| 20260506042517 | 51 | 205 | 5.0 | 11.0 | 0.01 | 0.40 | 0.00 | 82 | 1007.0 |
| 20260506042022 | 51 | 164 | 3.0 | 11.0 | 0.01 | 0.40 | 0.00 | 81 | 1006.7 |
| 20260506041545 | 51 | 180 | 4.0 | 13.0 | 0.01 | 0.40 | 0.00 | 81 | 1006.6 |
| 20260506041017 | 51 | 170 | 6.0 | 13.0 | 0.02 | 0.40 | 0.00 | 80 | 1006.3 |
| 20260506040522 | 51 | 207 | 5.0 | 11.0 | 0.02 | 0.40 | 0.00 | 80 | 1006.6 |
| 20260506040038 | 51 | 247 | 3.0 | 12.0 | 0.02 | 0.40 | 0.00 | 80 | 1006.3 |
| 20260506035515 | 51 | 182 | 5.0 | 12.0 | 0.02 | 0.40 | 0.40 | 79 | 1006.2 |
| 20260506035014 | 52 | 300 | 3.0 | 12.0 | 0.03 | 0.40 | 0.40 | 80 | 1006.2 |
| 20260506034530 | 52 | 301 | 3.0 | 12.0 | 0.03 | 0.40 | 0.40 | 80 | 1005.9 |
| 20260506034013 | 52 | 186 | 4.0 | 11.0 | 0.03 | 0.40 | 0.40 | 80 | 1005.9 |
| 20260506033514 | 52 | 172 | 5.0 | 12.0 | 0.04 | 0.40 | 0.40 | 80 | 1005.9 |
| 20260506033034 | 52 | 228 | 5.0 | 12.0 | 0.03 | 0.39 | 0.39 | 79 | 1005.9 |
| 20260506032518 | 52 | 173 | 5.0 | 12.0 | 0.04 | 0.39 | 0.39 | 78 | 1006.0 |
| 20260506032014 | 53 | 240 | 5.0 | 13.0 | 0.04 | 0.39 | 0.39 | 78 | 1005.9 |
| 20260506031531 | 53 | 223 | 4.0 | 13.0 | 0.04 | 0.39 | 0.39 | 77 | 1006.0 |
| 20260506031014 | 53 | 244 | 6.0 | 17.0 | 0.03 | 0.38 | 0.38 | 76 | 1005.9 |
| 20260506030513 | 53 | 241 | 8.0 | 17.0 | 0.03 | 0.38 | 0.38 | 76 | 1005.9 |
| 20260506030033 | 54 | 223 | 6.0 | 16.0 | 0.04 | 0.38 | 0.38 | 77 | 1005.6 |
| 20260506025515 | 54 | 259 | 5.0 | 13.0 | 0.04 | 0.38 | 0.38 | 78 | 1005.7 |
| 20260506025016 | 54 | 219 | 3.0 | 10.0 | 0.03 | 0.37 | 0.37 | 77 | 1005.7 |
| 20260506024537 | 55 | 263 | 4.0 | 13.0 | 0.03 | 0.37 | 0.37 | 77 | 1005.6 |
| 20260506024016 | 55 | 196 | 3.0 | 13.0 | 0.03 | 0.37 | 0.37 | 77 | 1005.4 |
| 20260506023513 | 56 | 109 | 4.0 | 13.0 | 0.02 | 0.36 | 0.36 | 76 | 1005.5 |
| 20260506023029 | 56 | 304 | 4.0 | 13.0 | 0.02 | 0.36 | 0.36 | 75 | 1005.3 |
| 20260506022514 | 57 | 309 | 2.0 | 15.0 | 0.01 | 0.35 | 0.35 | 75 | 1005.2 |
| 20260506022015 | 57 | 219 | 2.0 | 15.0 | 0.01 | 0.35 | 0.35 | 75 | 1004.9 |
| 20260506021531 | 58 | 331 | 3.0 | 15.0 | 0.01 | 0.35 | 0.35 | 74 | 1004.7 |
| 20260506021013 | 58 | 256 | 3.0 | 9.0 | 0.01 | 0.35 | 0.35 | 74 | 1004.6 |
| 20260506020513 | 58 | 275 | 2.0 | 9.0 | 0.01 | 0.35 | 0.35 | 73 | 1004.6 |
| 20260506020030 | 58 | 281 | 3.0 | 9.0 | 0.00 | 0.34 | 0.34 | 72 | 1004.5 |
| 20260506015514 | 59 | 217 | 3.0 | 8.0 | 0.00 | 0.34 | 0.34 | 72 | 1004.4 |
| 20260506015014 | 59 | 225 | 2.0 | 5.0 | 0.00 | 0.34 | 0.34 | 72 | 1004.2 |
| 20260506014544 | 59 | 211 | 1.0 | 5.0 | 0.00 | 0.34 | 0.34 | 73 | 1004.0 |
| 20260506014013 | 59 | 210 | 2.0 | 5.0 | 0.00 | 0.34 | 0.34 | 73 | 1003.9 |
| 20260506013513 | 59 | 0 | 2.0 | 5.0 | 0.00 | 0.34 | 0.34 | 73 | 1003.8 |
| 20260506013034 | 59 | 200 | 1.0 | 5.0 | 0.00 | 0.34 | 0.34 | 74 | 1003.7 |
| 20260506012513 | 60 | 210 | 2.0 | 11.0 | 0.00 | 0.34 | 0.34 | 74 | 1003.8 |
| 20260506012012 | 60 | 217 | 2.0 | 11.0 | 0.00 | 0.34 | 0.34 | 73 | 1003.8 |
| 20260506011539 | 60 | 178 | 1.0 | 10.0 | 0.00 | 0.34 | 0.34 | 73 | 1003.7 |
| 20260506011014 | 61 | 215 | 4.0 | 10.0 | 0.00 | 0.34 | 0.34 | 71 | 1003.6 |
| 20260506010515 | 61 | 296 | 3.0 | 9.0 | 0.00 | 0.34 | 0.34 | 71 | 1003.4 |
| 20260506010030 | 61 | 204 | 2.0 | 9.0 | 0.00 | 0.34 | 0.34 | 71 | 1003.4 |
| 20260506005513 | 61 | 231 | 2.0 | 9.0 | 0.00 | 0.34 | 0.34 | 71 | 1003.4 |
| 20260506005017 | 62 | 173 | 3.0 | 9.0 | 0.00 | 0.34 | 0.34 | 71 | 1003.2 |
| 20260506004539 | 62 | 252 | 3.0 | 11.0 | 0.00 | 0.34 | 0.34 | 71 | 1003.2 |
| 20260506004016 | 62 | 265 | 3.0 | 12.0 | 0.00 | 0.34 | 0.34 | 70 | 1003.0 |
| 20260506003514 | 62 | 260 | 3.0 | 12.0 | 0.00 | 0.34 | 0.34 | 71 | 1003.1 |
| 20260506003031 | 62 | 219 | 3.0 | 11.0 | 0.00 | 0.34 | 0.34 | 70 | 1003.1 |
| 20260506002513 | 62 | 260 | 4.0 | 12.0 | 0.00 | 0.34 | 0.34 | 70 | 1003.0 |
| 20260506002013 | 62 | 210 | 4.0 | 12.0 | 0.00 | 0.34 | 0.34 | 70 | 1002.8 |
| 20260506001534 | 62 | 215 | 4.0 | 10.0 | 0.00 | 0.34 | 0.34 | 70 | 1002.7 |
| 20260506001014 | 63 | 177 | 5.0 | 15.0 | 0.00 | 0.34 | 0.34 | 70 | 1002.6 |
| 20260506000514 | 63 | 243 | 5.0 | 15.0 | 0.00 | 0.34 | 0.34 | 70 | 1002.7 |
| 20260506000040 | 63 | 210 | 2.0 | 8.0 | 0.00 | 0.34 | 0.34 | 69 | 1002.5 |
| 20260505235515 | 63 | 231 | 2.0 | 11.0 | 0.00 | 0.34 | 0.34 | 68 | 1002.4 |
| 20260505235014 | 63 | 219 | 2.0 | 13.0 | 0.00 | 0.34 | 0.34 | 67 | 1002.3 |
| 20260505234531 | 63 | 152 | 5.0 | 13.0 | 0.00 | 0.34 | 0.34 | 66 | 1002.3 |
| 20260505234014 | 63 | 243 | 4.0 | 10.0 | 0.00 | 0.34 | 0.34 | 66 | 1002.2 |
| 20260505233516 | 64 | 204 | 3.0 | 10.0 | 0.00 | 0.34 | 0.34 | 66 | 1002.1 |
| 20260505233032 | 64 | 225 | 4.0 | 11.0 | 0.00 | 0.34 | 0.34 | 66 | 1002.1 |
| 20260505232515 | 64 | 250 | 3.0 | 11.0 | 0.00 | 0.34 | 0.34 | 66 | 1002.0 |
| 20260505232015 | 64 | 192 | 4.0 | 15.0 | 0.00 | 0.34 | 0.34 | 66 | 1001.8 |
| 20260505231529 | 64 | 226 | 3.0 | 15.0 | 0.00 | 0.34 | 0.34 | 66 | 1001.7 |
| 20260505231016 | 64 | 212 | 4.0 | 14.0 | 0.00 | 0.34 | 0.34 | 66 | 1001.6 |
| 20260505230519 | 64 | 213 | 5.0 | 14.0 | 0.00 | 0.34 | 0.34 | 65 | 1001.6 |
| 20260505230038 | 65 | 239 | 4.0 | 17.0 | 0.00 | 0.34 | 0.34 | 65 | 1001.6 |
| 20260505225515 | 65 | 230 | 4.0 | 17.0 | 0.00 | 0.34 | 0.34 | 64 | 1001.6 |
| 20260505225015 | 65 | 263 | 7.0 | 17.0 | 0.00 | 0.34 | 0.34 | 64 | 1001.5 |
| 20260505224538 | 65 | 192 | 4.0 | 13.0 | 0.00 | 0.34 | 0.34 | 65 | 1001.2 |
| 20260505224014 | 65 | 195 | 6.0 | 13.0 | 0.00 | 0.34 | 0.34 | 65 | 1001.2 |
| 20260505223517 | 65 | 261 | 6.0 | 12.0 | 0.00 | 0.34 | 0.34 | 65 | 1001.0 |
| 20260505223040 | 65 | 219 | 4.0 | 10.0 | 0.00 | 0.34 | 0.34 | 65 | 1000.9 |
| 20260505222515 | 65 | 177 | 4.0 | 12.0 | 0.00 | 0.34 | 0.34 | 65 | 1000.9 |
| 20260505222016 | 65 | 250 | 3.0 | 12.0 | 0.00 | 0.34 | 0.34 | 65 | 1000.8 |
| 20260505221529 | 65 | 248 | 1.0 | 10.0 | 0.00 | 0.34 | 0.34 | 64 | 1000.7 |
| 20260505221015 | 65 | 188 | 3.0 | 10.0 | 0.00 | 0.34 | 0.34 | 62 | 1000.6 |
| 20260505220515 | 65 | 202 | 5.0 | 11.0 | 0.00 | 0.34 | 0.34 | 62 | 1000.6 |
| 20260505220039 | 65 | 184 | 4.0 | 15.0 | 0.00 | 0.34 | 0.34 | 63 | 1000.5 |
| 20260505215516 | 65 | 261 | 4.0 | 15.0 | 0.00 | 0.34 | 0.34 | 63 | 1000.6 |
| 20260505215015 | 66 | 221 | 5.0 | 12.0 | 0.00 | 0.34 | 0.34 | 62 | 1000.7 |
| 20260505214551 | 66 | 194 | 7.0 | 14.0 | 0.00 | 0.34 | 0.34 | 62 | 1000.5 |
| 20260505214015 | 66 | 138 | 6.0 | 18.0 | 0.00 | 0.34 | 0.34 | 62 | 1000.5 |
| 20260505213513 | 66 | 202 | 9.0 | 18.0 | 0.00 | 0.34 | 0.34 | 61 | 1000.2 |
| 20260505213048 | 66 | 216 | 5.0 | 15.0 | 0.00 | 0.34 | 0.34 | 61 | 1000.1 |
| 20260505212517 | 67 | 248 | 6.0 | 19.0 | 0.00 | 0.34 | 0.34 | 62 | 1000.0 |
| 20260505212017 | 67 | 190 | 8.0 | 19.0 | 0.00 | 0.34 | 0.34 | 61 | 999.8 |
| 20260505211533 | 67 | 180 | 8.0 | 19.0 | 0.00 | 0.34 | 0.34 | 61 | 999.6 |
| 20260505211018 | 67 | 206 | 7.0 | 18.0 | 0.00 | 0.34 | 0.34 | 61 | 999.5 |
| 20260505210516 | 66 | 183 | 6.0 | 20.0 | 0.00 | 0.34 | 0.34 | 62 | 999.5 |
| 20260505210033 | 66 | 218 | 7.0 | 25.0 | 0.00 | 0.34 | 0.34 | 62 | 999.4 |
| 20260505205519 | 66 | 171 | 10.0 | 25.0 | 0.00 | 0.34 | 0.34 | 63 | 999.2 |
| 20260505205021 | 66 | 241 | 9.0 | 22.0 | 0.00 | 0.34 | 0.34 | 63 | 999.3 |
| 20260505204537 | 66 | 240 | 8.0 | 21.0 | 0.00 | 0.34 | 0.34 | 63 | 999.5 |
| 20260505204015 | 67 | 227 | 6.0 | 21.0 | 0.00 | 0.34 | 0.34 | 64 | 999.6 |
| 20260505203517 | 67 | 177 | 9.0 | 21.0 | 0.00 | 0.34 | 0.34 | 64 | 999.6 |
| 20260505203041 | 67 | 217 | 8.0 | 20.0 | 0.00 | 0.34 | 0.34 | 64 | 999.4 |
| 20260505202517 | 67 | 260 | 8.0 | 20.0 | 0.00 | 0.34 | 0.34 | 64 | 999.3 |
| 20260505202016 | 67 | 177 | 7.0 | 20.0 | 0.00 | 0.34 | 0.34 | 64 | 999.3 |
| 20260505201547 | 67 | 178 | 7.0 | 20.0 | 0.00 | 0.34 | 0.34 | 64 | 999.3 |
| 20260505201017 | 67 | 208 | 6.0 | 20.0 | 0.00 | 0.34 | 0.34 | 64 | 999.3 |
| 20260505200515 | 67 | 178 | 7.0 | 24.0 | 0.00 | 0.34 | 0.34 | 66 | 999.1 |
| 20260505200036 | 67 | 187 | 9.0 | 24.0 | 0.00 | 0.34 | 0.34 | 66 | 999.1 |
| 20260505195515 | 67 | 161 | 9.0 | 21.0 | 0.00 | 0.34 | 0.34 | 66 | 999.0 |
| 20260505195017 | 67 | 245 | 8.0 | 17.0 | 0.00 | 0.34 | 0.34 | 66 | 999.1 |
| 20260505194534 | 67 | 187 | 6.0 | 17.0 | 0.00 | 0.34 | 0.34 | 66 | 999.3 |
| 20260505194020 | 67 | 193 | 7.0 | 21.0 | 0.00 | 0.34 | 0.34 | 67 | 999.2 |
| 20260505193518 | 66 | 171 | 8.0 | 21.0 | 0.00 | 0.34 | 0.34 | 68 | 999.1 |
| 20260505193044 | 66 | 154 | 8.0 | 19.0 | 0.00 | 0.34 | 0.34 | 69 | 999.0 |
| 20260505192517 | 65 | 210 | 7.0 | 15.0 | 0.00 | 0.34 | 0.34 | 71 | 999.2 |
| 20260505192015 | 65 | 159 | 6.0 | 15.0 | 0.00 | 0.34 | 0.34 | 72 | 999.2 |
| 20260505191534 | 64 | 166 | 6.0 | 15.0 | 0.00 | 0.34 | 0.34 | 74 | 999.1 |
| 20260505191018 | 64 | 223 | 5.0 | 12.0 | 0.00 | 0.34 | 0.34 | 76 | 999.2 |
| 20260505190517 | 64 | 194 | 6.0 | 12.0 | 0.00 | 0.34 | 0.34 | 76 | 999.2 |
| 20260505190048 | 63 | 119 | 5.0 | 10.0 | 0.01 | 0.34 | 0.34 | 76 | 999.2 |
| 20260505185520 | 63 | 246 | 4.0 | 13.0 | 0.01 | 0.34 | 0.34 | 77 | 999.3 |
| 20260505185016 | 63 | 169 | 5.0 | 17.0 | 0.02 | 0.34 | 0.34 | 78 | 999.3 |
| 20260505184535 | 63 | 171 | 4.0 | 18.0 | 0.02 | 0.34 | 0.34 | 79 | 999.3 |
| 20260505184017 | 63 | 202 | 6.0 | 18.0 | 0.06 | 0.34 | 0.34 | 79 | 999.4 |
| 20260505183515 | 63 | 203 | 5.0 | 11.0 | 0.15 | 0.34 | 0.34 | 80 | 999.3 |
| 20260505183047 | 62 | 219 | 5.0 | 11.0 | 0.21 | 0.34 | 0.34 | 82 | 999.3 |
| 20260505182520 | 62 | 227 | 4.0 | 14.0 | 0.23 | 0.34 | 0.34 | 84 | 999.2 |
| 20260505182016 | 61 | 203 | 4.0 | 14.0 | 0.24 | 0.34 | 0.34 | 86 | 999.2 |
| 20260505181532 | 60 | 259 | 6.0 | 11.0 | 0.25 | 0.34 | 0.34 | 86 | 999.2 |
| 20260505181021 | 60 | 241 | 4.0 | 11.0 | 0.25 | 0.34 | 0.34 | 86 | 999.2 |
| 20260505180517 | 59 | 242 | 4.0 | 11.0 | 0.25 | 0.34 | 0.34 | 85 | 999.1 |
| 20260505180037 | 59 | 178 | 2.0 | 19.0 | 0.24 | 0.33 | 0.33 | 85 | 999.2 |
| 20260505175515 | 59 | 263 | 5.0 | 19.0 | 0.24 | 0.33 | 0.33 | 84 | 999.8 |
| 20260505175023 | 60 | 304 | 3.0 | 18.0 | 0.23 | 0.32 | 0.32 | 83 | 999.9 |
| 20260505174540 | 60 | 236 | 6.0 | 22.0 | 0.22 | 0.31 | 0.31 | 81 | 999.8 |
| 20260505174016 | 61 | 302 | 8.0 | 23.0 | 0.18 | 0.27 | 0.27 | 78 | 999.8 |
| 20260505173515 | 63 | 314 | 10.0 | 23.0 | 0.09 | 0.18 | 0.18 | 74 | 999.6 |
| 20260505173040 | 65 | 331 | 4.0 | 11.0 | 0.03 | 0.12 | 0.12 | 71 | 999.3 |
| 20260505172515 | 67 | 250 | 2.0 | 10.0 | 0.02 | 0.11 | 0.11 | 68 | 998.9 |
| 20260505172025 | 67 | 18 | 6.0 | 14.0 | 0.00 | 0.09 | 0.09 | 62 | 999.0 |
| 20260505171539 | 67 | 274 | 3.0 | 15.0 | 0.00 | 0.09 | 0.09 | 58 | 998.7 |
| 20260505171016 | 67 | 273 | 5.0 | 15.0 | 0.00 | 0.09 | 0.09 | 58 | 998.8 |
| 20260505170519 | 67 | 218 | 4.0 | 11.0 | 0.00 | 0.09 | 0.09 | 59 | 998.9 |
| 20260505170041 | 67 | 212 | 2.0 | 12.0 | 0.00 | 0.09 | 0.09 | 59 | 998.9 |
| 20260505165516 | 68 | 214 | 5.0 | 15.0 | 0.00 | 0.09 | 0.09 | 58 | 998.9 |
| 20260505165019 | 68 | 187 | 4.0 | 15.0 | 0.00 | 0.09 | 0.09 | 58 | 998.7 |
| 20260505164537 | 68 | 182 | 7.0 | 16.0 | 0.00 | 0.09 | 0.09 | 58 | 998.8 |
| 20260505164016 | 67 | 212 | 8.0 | 16.0 | 0.00 | 0.09 | 0.09 | 58 | 998.8 |
| 20260505163516 | 67 | 146 | 6.0 | 21.0 | 0.00 | 0.09 | 0.09 | 59 | 998.9 |
| 20260505163033 | 66 | 115 | 6.0 | 22.0 | 0.00 | 0.09 | 0.09 | 59 | 999.0 |
| 20260505162516 | 66 | 186 | 9.0 | 22.0 | 0.00 | 0.09 | 0.09 | 59 | 999.1 |
| 20260505162016 | 66 | 163 | 5.0 | 16.0 | 0.00 | 0.09 | 0.09 | 60 | 999.4 |
| 20260505161535 | 66 | 213 | 6.0 | 20.0 | 0.00 | 0.09 | 0.09 | 60 | 999.4 |
| 20260505161016 | 66 | 198 | 8.0 | 20.0 | 0.00 | 0.09 | 0.09 | 61 | 999.6 |
| 20260505160516 | 65 | 164 | 9.0 | 19.0 | 0.00 | 0.09 | 0.09 | 62 | 999.8 |
| 20260505153044 | 62 | 196 | 10.0 | 21.0 | 0.01 | 0.09 | 0.09 | 69 | 1000.3 |
| 20260505152516 | 62 | 185 | 7.0 | 18.0 | 0.01 | 0.09 | 0.09 | 71 | 1000.3 |
| 20260505152024 | 61 | 171 | 7.0 | 18.0 | 0.01 | 0.09 | 0.09 | 73 | 1000.4 |
| 20260505151551 | 60 | 184 | 7.0 | 18.0 | 0.01 | 0.09 | 0.09 | 74 | 1000.4 |
| 20260505151016 | 60 | 138 | 7.0 | 18.0 | 0.01 | 0.09 | 0.09 | 75 | 1000.5 |